Other Surface Observations
Issued by NWS

Home | Current Version | Previous Version | Text Only | Print | Product List | Glossary On
Versions: 1 2 3 4 5 6 7 8 9 10 11 12 13 14 15 16 17 18 19 20 21 22 23 24 25 26 27 28 29 30 31 32 33 34 35 36 37 38 39 40 41 42 43 44 45 46 47 48 49 50
000
SXUS52 KTAE 181118
OSOTAE
OSOTAE
North Florida/South Alabama/Southwest Georgia Weather Roundup
National Weather Service Tallahassee Florida
700 AM EDT THU SEP 18 2014

Note: "fair" indicates few or no clouds below 12,000 feet with no
significant weather and/or obstructions to visibility.

!FLZ017-115-028-034-025-181200
...North Florida...

CITY           SKY/WX    TMP DP  RH WIND       PRES   REMARKS
TALLAHASSEE    PTCLDY    69  68  96 CALM      29.90S
APALACHICOLA   CLEAR     73  69  87 CALM      29.90R
PERRY          CLEAR     70  70 100 CALM      29.91R
CROSS CITY       N/A     70  68  93 CALM      29.90R
HOMERVILLE     FAIR      72  70  94 CALM      29.91S
JACKSONVILLE   PTCLDY    70  70 100 CALM      29.89R
$$

!FLZ112-006-005-002-011-181200
...Florida Panhandle...

CITY           SKY/WX    TMP DP  RH WIND       PRES   REMARKS
MARIANNA       CLEAR     69  69 100 CALM      29.90R
BONIFAY        FAIR      68  68 100 CALM      29.93R FOG
PANAMA CITY NW FAIR      73  70  90 CALM      29.90R
TYNDALL AFB    CLEAR     75  75 100 N6        29.90R
TYND DRONE APT FAIR      73  73 100 MISG      29.89R
DE FUNIAK SPR  FAIR      70  69  95 N5        29.92R
EGLIN AFB      PTCLDY    73  68  83 CALM      29.91R
DESTIN         PTCLDY    77  71  82 N7        29.90R
HURLBURT       PTCLDY    72  66  83 N6        29.90R
CRESTVIEW      PTCLDY    68  67  96 CALM      29.93R FOG
PENSACOLA      CLEAR     72  72 100 N3        29.90S
$$

!ALZ063-066-181200
...South Alabama...

CITY           SKY/WX    TMP DP  RH WIND       PRES   REMARKS
DOTHAN         CLEAR     68  66  93 CALM      29.96R
OZARK CAIRNS   CLEAR     70  66  88 N5        29.92R
FT RUCKER HELI CLEAR     65  64  97 MISG      29.91R FOG
RUCKER HELI 3  FAIR      68  67  98 N3        29.94R
RUCKER HELI 2  FAIR      67  65  93 CALM      29.92R
FLORALA APT    PTCLDY    68  66  93 CALM      29.94R
ANDALUSIA      CLEAR     72  66  81 CALM      29.92R
TROY           CLEAR     62  61  96 CALM      29.93S FOG
EUFALA         FAIR      65  63  93 CALM      29.92R
MOBILE         PTCLDY    71  70  96 NE3       29.92R
$$

!GAZ120>161-181200
...Southwest and South Central Georgia...

CITY           SKY/WX    TMP DP  RH WIND       PRES   REMARKS
THOMASVILLE    FAIR      70  70 100 CALM      29.92R
BAINBRIDGE     CLEAR     70  70 100 CALM      29.91R
MOODY AFB      CLEAR     71  69  93 W3        29.91R
VALDOSTA       CLEAR     69  67  93 CALM      29.91R
MOULTRIE       CLEAR     68  68 100 CALM      29.92R
BLAKELY        CLEAR     70  68  94 CALM        N/A  FOG
ALBANY         CLEAR     68  66  93 CALM      29.93R
TIFTON         FAIR      67  67  99 CALM      29.91R FOG
FITZGERALD       N/A     66  64  91 CALM      29.94R FOG
CORDELE        FAIR      66  65  94 CALM      29.93R
AMERICUS       FAIR      64  63  94 N5        29.95R
$$

!GMZ750-755-770-775-181200
...Coastal and Buoy Obs...

STATION/POSITION TIME  TEMP    WIND        PRES    VSBY  WAVE
                       AIR SEA DIR/SP/G                  HT/PER
                 (UTC) (F)     (DEG/KT/KT) (MB)    (MI)  (FT/S)
KEATON BEACH     1100   74      50/  2/  2 1012.7R
CEDAR KEY        1100   78      50/  3/  3 1013.1R
C TOWER          1100   80     360/  4/  5 1012.5R
APALACHICOLA BUO 1100   82 85   50/  4/  6 1012.3R         1/ 5
PANAMA CITY BUOY 1020   81 85   10/  2/  4 1012.4R         1/ 5
MOBILE BUOY      1026   82 85   10/  4/  6 1012.8R         1/ 5
ORANGE BCH AL BU 1100   82 85  360/ 12/ 14 1012.3R         1/ 7
$$



USA.gov is the U.S. government's official web portal to all federal, state and local government web resources and services.